Погода в Астрадамовке

Россия / Ульяновская область     54°32′47″N   47°08′18″E
темп.,
°C
ветер,
м/с
пор.,
м/с
влажн.,
%
обл.,
%
осадки,
мм/ч
давл.,
гПа
погр.,
м
20 января, чт
чт2001:00−16ю2210094 0.0 101810
04:00−18ю2210098 0.1 10199
07:00−16ю22100100 0.0 101821
10:00−11ююз2496100 0.1 101777
13:00−6юз41191100 0.0 1017581
16:00−6ююз489181 0.0 1016310
19:00−8ююз5119280 0.0 1016325
22:00−14ю369749 0.0 101787
21 января, пт
пт2101:00−18ю329848 0.0 101831
04:00−19ю239933 0.0 101930
07:00−19ююв239930 0.0 101832
10:00−17ююв389782 0.0 1019128
13:00−10ю5148876 0.0 1017348
16:00−9ююв5138749 0.0 1016364
19:00−11ююв6158991 0.0 1016359
22:00−11ююв71692100 0.0 1015388
22 января, сб
сб2201:00−10юв81888100 0.0 1014514
04:00−9ююв81691100 0.8 1014547
07:00−9ююв5119177 0.2 1015311
10:00−11ююв410935 0.2 1018185
13:00−7ююв39925 0.0 1019283
16:00−7юв3794100 0.0 1020188
19:00−7вюв3795100 0.0 1022130
22:00−6вюв3796100 0.1 1023204
23 января, вс
вс2301:00−6вюв4995100 0.4 1023330
04:00−4юв71494100 1.9 1023649
07:00−5ююв71589100 0.5 1024577
10:00−6ююв61490100 0.5 1026498
13:00−6юв51092100 0.0 1028404
16:00−6юв51090100 0.0 1029387
19:00−8юв3988100 0.0 1032296
22:00−8вюв3988100 0.0 1033272
24 января, пн
пн2401:00−10в3888100 0.0 1033169
04:00−11в3789100 0.0 1034132
07:00−13в3691100 0.0 103586
10:00−13в389176 0.0 1035122
13:00−8юв4118599 0.0 1035354
16:00−8юв51185100 0.0 1034323
19:00−9юв41185100 0.0 1034262
22:00−11юв41282100 0.0 1034225